ROMMA est une association bénévole à but non lucratif. Votre soutien est indispensable : ADHERER à ROMMA ou FAIRE un DON

Voiron - (38, Isère)

Voironnais (300 m)   Longitude: 05° 35' E   Latitude: 45° 23' N Station partenaire n°109
 

Détail journalier du     <<     >>

Température Precipitation Humidité Pression Vent Dir Rafale Dir. rafale Ensol.
Heure (°C) (mm) (%) (hPa) (km/h) (km/h) (min)
01:00 15.6070101605N0
02:00 14.907310161ESE6ESE0
03:00 14.1075101705ESE0
04:00 12.807610161ESE5ESE0
05:00 12.307810162SO6NO0
06:00 11.608110172OSO5SO0
07:00 12.307910172N13N0
08:00 14.107310173SSE11SSE60
09:00 16.206410172S11OSO60
10:00 17.7058101710SE24SSE60
11:00 19.0054101711S23S60
12:00 20.704910166SSO16S60
13:00 22.603610155SSE13SSO60
14:00 23.704110155SSO16SSE60
15:00 24.504410157SSE23SSE60
16:00 25.103910157SSO19SO60
17:00 25.404410149SSE19S60
18:00 26.204210134SSO15SSO60
19:00 26.204310135SSO15SSO60
20:00 25.804010135SSO13S60
21:00 24.804010144S10S60
22:00 21.805510142SE11SSE0
23:00 20.105810152NO8NO0
minuit 19.905810153NO10O0

Graphique du 13-06-2019

 

Serveur OMMA